Time,TemperatureF,DewpointF,PressureIn,WindDirection,WindDirectionDegrees,WindSpeedMPH,WindSpeedGustMPH,Humidity,HourlyPrecipIn,Conditions,Clouds,dailyrainin,SolarRadiationWatts/m^2,SoftwareType,DateUTC
2013-02-22 00:00:00,25.5,22.2,30.13,NE,45,12.7,12.7,87,0.00,CLR,,0.00,0.0,WeatherDisplay:10.37,2013-02-22 06:00:00,
2013-02-22 00:05:00,25.5,22.2,30.13,NE,36,10.4,10.4,87,0.00,CLR,,0.00,0.0,WeatherDisplay:10.37,2013-02-22 06:05:00,
2013-02-22 00:10:00,25.5,22.2,30.12,North,9,11.5,11.5,87,0.00,CLR,,0.00,0.0,WeatherDisplay:10.37,2013-02-22 06:10:00,
2013-02-22 00:15:00,25.5,22.2,30.12,NE,44,6.9,6.9,87,0.00,CLR,,0.00,0.0,WeatherDisplay:10.37,2013-02-22 06:15:00,
2013-02-22 00:20:00,25.3,22.0,30.11,NNE,24,10.4,10.4,87,0.00,CLR,,0.00,0.0,WeatherDisplay:10.37,2013-02-22 06:20:00,
2013-02-22 00:25:00,25.3,22.0,30.11,NNE,33,11.5,11.5,87,0.00,CLR,,0.00,0.0,WeatherDisplay:10.37,2013-02-22 06:25:00,
2013-02-22 00:30:00,25.1,22.0,30.11,NE,42,11.5,11.5,88,0.00,CLR,,0.00,0.0,WeatherDisplay:10.37,2013-02-22 06:30:00,
2013-02-22 00:35:00,24.9,22.1,30.10,NE,34,12.7,12.7,89,0.00,CLR,,0.00,0.0,WeatherDisplay:10.37,2013-02-22 06:35:00,
2013-02-22 00:40:00,24.6,22.1,30.10,NNE,30,11.5,11.5,90,0.00,CLR,,0.00,0.0,WeatherDisplay:10.37,2013-02-22 06:40:00,
2013-02-22 00:45:00,24.5,22.0,30.09,NNE,33,10.4,10.4,90,0.00,CLR,,0.00,0.0,WeatherDisplay:10.37,2013-02-22 06:45:00,
2013-02-22 00:50:00,24.4,22.2,30.08,NE,37,7.0,7.0,91,0.00,CLR,,0.00,0.0,WeatherDisplay:10.37,2013-02-22 06:50:00,
2013-02-22 00:55:00,24.3,22.1,30.08,NE,36,9.2,9.2,91,0.00,CLR,,0.00,0.0,WeatherDisplay:10.37,2013-02-22 06:55:00,
2013-02-22 01:00:00,24.2,22.0,30.08,NNE,27,11.5,11.5,91,0.00,CLR,,0.00,0.0,WeatherDisplay:10.37,2013-02-22 07:00:00,
2013-02-22 01:05:00,24.2,22.2,30.07,NNE,13,10.4,10.4,92,0.00,CLR,,0.00,0.0,WeatherDisplay:10.37,2013-02-22 07:05:00,
2013-02-22 01:10:00,24.2,22.2,30.07,NNE,29,10.4,10.4,92,0.00,CLR,,0.00,0.0,WeatherDisplay:10.37,2013-02-22 07:10:00,
2013-02-22 01:15:00,24.2,22.2,30.06,NE,44,6.0,6.0,92,0.00,CLR,,0.00,0.0,WeatherDisplay:10.37,2013-02-22 07:15:00,
2013-02-22 01:20:00,24.2,22.2,30.05,NNE,32,10.4,10.4,92,0.00,CLR,,0.00,0.0,WeatherDisplay:10.37,2013-02-22 07:20:00,
2013-02-22 01:25:00,24.1,22.1,30.05,NNE,23,11.5,11.5,92,0.00,CLR,,0.00,0.0,WeatherDisplay:10.37,2013-02-22 07:25:00,
2013-02-22 01:30:00,24.2,22.2,30.05,NNE,18,6.9,6.9,92,0.00,CLR,,0.00,0.0,WeatherDisplay:10.37,2013-02-22 07:30:00,
2013-02-22 01:35:00,24.1,22.4,30.04,NE,50,8.1,8.1,93,0.00,CLR,,0.00,0.0,WeatherDisplay:10.37,2013-02-22 07:35:00,
2013-02-22 01:40:00,24.1,22.1,30.03,NE,40,8.1,8.1,92,0.00,CLR,,0.00,0.0,WeatherDisplay:10.37,2013-02-22 07:40:00,
2013-02-22 01:45:00,24.1,22.4,30.03,NE,35,9.2,9.2,93,0.00,CLR,,0.00,0.0,WeatherDisplay:10.37,2013-02-22 07:45:00,
2013-02-22 01:50:00,24.1,22.4,30.03,NE,48,9.0,9.0,93,0.00,CLR,,0.00,0.0,WeatherDisplay:10.37,2013-02-22 07:50:00,
2013-02-22 01:55:00,24.1,22.4,30.02,NNE,31,10.4,10.4,93,0.00,CLR,,0.00,0.0,WeatherDisplay:10.37,2013-02-22 07:55:00,
2013-02-22 02:00:00,24.1,22.4,30.02,North,11,6.9,6.9,93,0.00,CLR,,0.00,0.0,WeatherDisplay:10.37,2013-02-22 08:00:00,
2013-02-22 02:05:00,24.1,22.4,30.02,NE,40,10.4,10.4,93,0.00,CLR,,0.00,0.0,WeatherDisplay:10.37,2013-02-22 08:05:00,
2013-02-22 02:10:00,24.1,22.4,30.02,NE,38,10.4,10.4,93,0.00,CLR,,0.00,0.0,WeatherDisplay:10.37,2013-02-22 08:10:00,
2013-02-22 02:15:00,24.1,22.4,30.01,NE,36,9.2,9.2,93,0.00,CLR,,0.00,0.0,WeatherDisplay:10.37,2013-02-22 08:15:00,
2013-02-22 02:20:00,24.2,22.5,30.01,NNE,33,10.4,10.4,93,0.00,CLR,,0.00,0.0,WeatherDisplay:10.37,2013-02-22 08:20:00,
2013-02-22 02:25:00,24.2,22.5,30.01,NNE,33,8.1,8.1,93,0.00,CLR,,0.00,0.0,WeatherDisplay:10.37,2013-02-22 08:25:00,
2013-02-22 02:30:00,24.2,22.5,30.00,NNE,32,11.0,11.0,93,0.00,CLR,,0.00,0.0,WeatherDisplay:10.37,2013-02-22 08:30:00,
2013-02-22 02:35:00,24.2,22.5,30.00,NE,36,12.7,12.7,93,0.00,CLR,,0.00,0.0,WeatherDisplay:10.37,2013-02-22 08:35:00,
2013-02-22 02:40:00,24.2,22.5,30.00,NE,46,12.0,12.0,93,0.00,CLR,,0.00,0.0,WeatherDisplay:10.37,2013-02-22 08:40:00,
2013-02-22 02:45:00,24.2,22.5,30.00,NE,47,10.4,10.4,93,0.00,CLR,,0.00,0.0,WeatherDisplay:10.37,2013-02-22 08:45:00,
2013-02-22 02:50:00,24.3,22.6,29.99,North,10,11.5,11.5,93,0.00,CLR,,0.00,0.0,WeatherDisplay:10.37,2013-02-22 08:50:00,
2013-02-22 02:55:00,24.3,22.6,30.00,NE,56,10.0,10.0,93,0.00,CLR,,0.00,0.0,WeatherDisplay:10.37,2013-02-22 08:55:00,
2013-02-22 03:00:00,24.3,22.6,29.99,NNE,33,9.2,9.2,93,0.00,CLR,,0.00,0.0,WeatherDisplay:10.37,2013-02-22 09:00:00,
2013-02-22 03:05:00,24.3,22.6,29.99,NNE,15,9.2,9.2,93,0.00,CLR,,0.00,0.0,WeatherDisplay:10.37,2013-02-22 09:05:00,
2013-02-22 03:10:00,24.3,22.8,29.99,NE,35,10.4,10.4,94,0.00,CLR,,0.00,0.0,WeatherDisplay:10.37,2013-02-22 09:10:00,
2013-02-22 03:15:00,24.3,22.8,29.98,ENE,59,11.5,11.5,94,0.00,CLR,,0.00,0.0,WeatherDisplay:10.37,2013-02-22 09:15:00,
2013-02-22 03:20:00,24.3,22.8,29.98,NE,41,10.0,10.0,94,0.00,CLR,,0.00,0.0,WeatherDisplay:10.37,2013-02-22 09:20:00,
2013-02-22 03:25:00,24.3,22.8,29.98,NNE,27,6.9,6.9,94,0.00,CLR,,0.00,0.0,WeatherDisplay:10.37,2013-02-22 09:25:00,
2013-02-22 03:30:00,24.4,22.7,29.98,NE,45,10.4,10.4,93,0.00,CLR,,0.00,0.0,WeatherDisplay:10.37,2013-02-22 09:30:00,
2013-02-22 03:35:00,24.4,22.9,29.97,NE,35,10.4,10.4,94,0.00,CLR,,0.00,0.0,WeatherDisplay:10.37,2013-02-22 09:35:00,
2013-02-22 03:40:00,24.4,22.9,29.98,NE,46,11.0,11.0,94,0.00,CLR,,0.00,0.0,WeatherDisplay:10.37,2013-02-22 09:40:00,
2013-02-22 03:45:00,24.5,23.0,29.98,NE,40,8.1,8.1,94,0.00,CLR,,0.00,0.0,WeatherDisplay:10.37,2013-02-22 09:45:00,
2013-02-22 03:50:00,24.5,23.0,29.98,NE,38,11.5,11.5,94,0.00,CLR,,0.00,0.0,WeatherDisplay:10.37,2013-02-22 09:50:00,
2013-02-22 03:55:00,24.6,23.1,29.98,NE,36,5.8,5.8,94,0.00,CLR,,0.00,0.0,WeatherDisplay:10.37,2013-02-22 09:55:00,
2013-02-22 04:00:00,24.6,23.1,29.98,NE,40,5.8,5.8,94,0.00,CLR,,0.00,0.0,WeatherDisplay:10.37,2013-02-22 10:00:00,
2013-02-22 04:05:00,24.7,23.2,29.98,NE,36,5.0,5.0,94,0.00,CLR,,0.00,0.0,WeatherDisplay:10.37,2013-02-22 10:05:00,
2013-02-22 04:10:00,24.7,23.2,29.98,NE,43,4.6,4.6,94,0.00,CLR,,0.00,0.0,WeatherDisplay:10.37,2013-02-22 10:10:00,
2013-02-22 04:15:00,24.8,23.3,29.97,NE,43,4.6,4.6,94,0.00,CLR,,0.00,0.0,WeatherDisplay:10.37,2013-02-22 10:15:00,
2013-02-22 04:20:00,24.8,23.3,29.97,NE,45,4.0,4.0,94,0.00,CLR,,0.00,0.0,WeatherDisplay:10.37,2013-02-22 10:20:00,
2013-02-22 04:25:00,24.9,23.4,29.97,NE,42,4.6,4.6,94,0.00,CLR,,0.00,0.0,WeatherDisplay:10.37,2013-02-22 10:25:00,
2013-02-22 04:30:00,24.9,23.4,29.97,NE,34,8.0,8.0,94,0.00,CLR,,0.00,0.0,WeatherDisplay:10.37,2013-02-22 10:30:00,
2013-02-22 04:35:00,24.9,23.4,29.97,NNE,32,5.8,5.8,94,0.00,CLR,,0.00,0.0,WeatherDisplay:10.37,2013-02-22 10:35:00,
2013-02-22 04:40:00,25.0,23.5,29.97,NNE,31,9.2,9.2,94,0.00,CLR,,0.00,0.0,WeatherDisplay:10.37,2013-02-22 10:40:00,
2013-02-22 04:45:00,25.0,23.5,29.97,NE,38,4.6,4.6,94,0.00,CLR,,0.00,0.0,WeatherDisplay:10.37,2013-02-22 10:45:00,
2013-02-22 04:50:00,25.0,23.5,29.96,NE,36,6.9,6.9,94,0.00,CLR,,0.00,0.0,WeatherDisplay:10.37,2013-02-22 10:50:00,
2013-02-22 04:55:00,25.0,23.5,29.96,NE,44,12.7,12.7,94,0.00,CLR,,0.00,0.0,WeatherDisplay:10.37,2013-02-22 10:55:00,
2013-02-22 05:00:00,25.1,23.6,29.96,NE,44,6.9,6.9,94,0.00,CLR,,0.00,0.0,WeatherDisplay:10.37,2013-02-22 11:00:00,
2013-02-22 05:05:00,25.1,23.6,29.95,NNE,19,10.4,10.4,94,0.00,CLR,,0.00,0.0,WeatherDisplay:10.37,2013-02-22 11:05:00,
2013-02-22 05:10:00,25.2,23.7,29.95,NE,38,10.4,10.4,94,0.00,CLR,,0.00,0.0,WeatherDisplay:10.37,2013-02-22 11:10:00,
2013-02-22 05:15:00,25.2,23.7,29.95,NE,41,8.1,8.1,94,0.00,CLR,,0.00,0.0,WeatherDisplay:10.37,2013-02-22 11:15:00,
2013-02-22 05:19:00,25.2,23.7,29.95,NE,35,6.9,6.9,94,0.00,CLR,,0.00,0.0,WeatherDisplay:10.37,2013-02-22 11:19:00,
2013-02-22 05:20:00,25.2,23.7,29.95,NE,35,6.9,6.9,94,0.00,CLR,,0.00,0.0,WeatherDisplay:10.37,2013-02-22 11:20:00,
2013-02-22 05:25:00,25.2,23.7,29.95,NE,35,6.9,6.9,94,0.00,CLR,,0.00,0.0,WeatherDisplay:10.37,2013-02-22 11:25:00,
2013-02-22 05:35:00,25.4,23.9,29.94,NE,42,6.0,16.0,94,0.00,OVC,,0.00,0.0,WeatherDisplay:10.37,2013-02-22 11:35:00,
2013-02-22 05:40:00,25.4,23.9,29.94,NE,45,6.0,16.0,94,0.00,OVC,,0.00,0.0,WeatherDisplay:10.37,2013-02-22 11:40:00,
2013-02-22 05:45:00,25.5,24.0,29.93,NE,45,6.0,12.0,94,0.00,OVC,,0.00,0.0,WeatherDisplay:10.37,2013-02-22 11:45:00,
2013-02-22 05:50:00,25.5,24.0,29.93,NE,45,6.0,12.0,94,0.00,OVC,,0.00,0.0,WeatherDisplay:10.37,2013-02-22 11:50:00,
2013-02-22 05:55:00,25.7,24.2,29.93,NE,45,6.0,11.0,94,0.00,OVC,,0.00,0.0,WeatherDisplay:10.37,2013-02-22 11:55:00,
2013-02-22 06:00:00,25.7,24.2,29.93,NE,45,6.0,11.0,94,0.00,OVC,,0.00,0.0,WeatherDisplay:10.37,2013-02-22 12:00:00,
2013-02-22 06:05:00,25.8,24.3,29.93,NE,45,5.0,9.0,94,0.00,OVC,,0.00,0.0,WeatherDisplay:10.37,2013-02-22 12:05:00,
2013-02-22 06:10:00,25.8,24.3,29.93,NE,45,5.0,9.0,94,0.00,OVC,,0.00,0.0,WeatherDisplay:10.37,2013-02-22 12:10:00,
2013-02-22 06:15:00,25.9,24.4,29.92,NE,45,5.0,13.0,94,0.00,OVC,,0.00,0.0,WeatherDisplay:10.37,2013-02-22 12:15:00,
2013-02-22 06:20:00,25.2,23.7,29.95,NE,35,6.9,6.9,94,0.00,CLR,,0.00,0.0,WeatherDisplay:10.37,2013-02-22 12:20:00,
2013-02-22 06:25:00,25.2,23.7,29.95,NE,35,6.9,6.9,94,0.00,CLR,,0.00,0.0,WeatherDisplay:10.37,2013-02-22 12:25:00,
2013-02-22 06:30:00,26.0,24.5,29.92,NE,45,5.0,10.0,94,0.00,OVC,,0.00,0.0,WeatherDisplay:10.37,2013-02-22 12:30:00,
2013-02-22 06:35:00,26.1,24.6,29.92,NE,45,3.0,8.0,94,0.00,OVC,,0.00,0.0,WeatherDisplay:10.37,2013-02-22 12:35:00,
2013-02-22 06:40:00,26.1,24.6,29.92,NE,45,3.0,8.0,94,0.00,OVC,,0.00,0.0,WeatherDisplay:10.37,2013-02-22 12:40:00,
2013-02-22 06:45:00,26.2,24.7,29.91,NE,45,5.0,10.0,94,0.00,OVC,,0.00,0.0,WeatherDisplay:10.37,2013-02-22 12:45:00,
2013-02-22 06:50:00,26.2,24.7,29.91,NE,45,5.0,10.0,94,0.00,OVC,,0.00,0.0,WeatherDisplay:10.37,2013-02-22 12:50:00,
2013-02-22 06:55:00,26.2,24.7,29.91,NE,45,5.0,10.0,94,0.00,OVC,,0.00,0.0,WeatherDisplay:10.37,2013-02-22 12:55:00,
2013-02-22 07:00:00,26.2,24.7,29.91,NE,45,5.0,10.0,94,0.00,OVC,,0.00,0.0,WeatherDisplay:10.37,2013-02-22 13:00:00,
2013-02-22 07:05:00,26.1,24.6,29.91,NE,45,3.0,7.0,94,0.00,OVC,,0.00,0.0,WeatherDisplay:10.37,2013-02-22 13:05:00,
2013-02-22 07:10:00,26.1,24.6,29.91,NE,45,3.0,7.0,94,0.00,OVC,,0.00,0.0,WeatherDisplay:10.37,2013-02-22 13:10:00,
2013-02-22 07:15:00,26.1,24.6,29.91,NE,45,3.0,7.0,94,0.00,OVC,,0.00,6.0,WeatherDisplay:10.37,2013-02-22 13:15:00,
2013-02-22 07:20:00,26.1,24.6,29.91,NE,45,3.0,7.0,94,0.00,OVC,,0.00,6.0,WeatherDisplay:10.37,2013-02-22 13:20:00,
2013-02-22 07:25:00,26.1,24.6,29.91,NE,45,3.0,13.0,94,0.00,OVC,,0.00,8.0,WeatherDisplay:10.37,2013-02-22 13:25:00,
2013-02-22 07:30:00,26.1,24.6,29.91,NE,45,3.0,13.0,94,0.00,OVC,,0.00,8.0,WeatherDisplay:10.37,2013-02-22 13:30:00,
2013-02-22 07:35:00,26.2,24.7,29.91,NE,45,3.0,7.0,94,0.00,OVC,,0.00,8.0,WeatherDisplay:10.37,2013-02-22 13:35:00,
2013-02-22 07:45:00,26.3,24.8,29.90,NE,47,10.4,0.0,94,0.00,OVC,,0.00,14.0,WeatherDisplay:10.37,2013-02-22 13:45:00,
2013-02-22 07:50:00,26.3,24.8,29.90,NE,39,5.8,5.8,94,0.00,BKN,,0.00,16.0,WeatherDisplay:10.37,2013-02-22 13:50:00,
2013-02-22 07:55:00,26.3,24.8,29.90,NE,46,3.5,3.5,94,0.00,BKN,,0.00,18.0,WeatherDisplay:10.37,2013-02-22 13:55:00,
2013-02-22 08:00:00,26.3,24.8,29.90,NE,38,4.0,4.0,94,0.00,BKN,,0.00,19.0,WeatherDisplay:10.37,2013-02-22 14:00:00,
2013-02-22 08:05:00,26.3,24.8,29.90,NE,43,3.5,3.5,94,0.00,BKN,,0.00,21.0,WeatherDisplay:10.37,2013-02-22 14:05:00,
2013-02-22 08:10:00,26.3,24.8,29.89,NE,47,4.6,4.6,94,0.00,BKN,,0.00,23.0,WeatherDisplay:10.37,2013-02-22 14:10:00,
2013-02-22 08:15:00,26.3,24.8,29.89,NE,46,3.5,3.9,94,0.00,BKN,,0.00,28.0,WeatherDisplay:10.37,2013-02-22 14:15:00,
2013-02-22 08:20:00,26.4,24.9,29.88,NE,48,4.6,4.6,94,0.00,BKN,,0.00,28.0,WeatherDisplay:10.37,2013-02-22 14:20:00,
2013-02-22 08:25:00,26.4,24.9,29.89,NE,46,3.5,3.5,94,0.00,BKN,,0.00,30.0,WeatherDisplay:10.37,2013-02-22 14:25:00,
2013-02-22 08:30:00,26.4,24.9,29.89,NE,43,3.5,3.5,94,0.00,BKN,,0.00,30.0,WeatherDisplay:10.37,2013-02-22 14:30:00,
2013-02-22 08:35:00,26.5,25.0,29.89,NE,44,3.5,3.5,94,0.00,BKN,,0.00,30.0,WeatherDisplay:10.37,2013-02-22 14:35:00,
2013-02-22 08:40:00,26.6,25.1,29.89,NE,43,2.3,2.3,94,0.00,BKN,,0.00,32.0,WeatherDisplay:10.37,2013-02-22 14:40:00,
2013-02-22 08:45:00,26.6,25.1,29.89,NE,43,3.5,3.5,94,0.00,BKN,,0.00,33.0,WeatherDisplay:10.37,2013-02-22 14:45:00,
2013-02-22 08:50:00,26.6,25.1,29.89,NE,43,3.5,3.5,94,0.00,BKN,,0.00,33.0,WeatherDisplay:10.37,2013-02-22 14:50:00,
2013-02-22 08:55:00,26.7,25.2,29.89,NNE,32,3.5,3.5,94,0.00,BKN,,0.00,37.0,WeatherDisplay:10.37,2013-02-22 14:55:00,
2013-02-22 09:00:00,26.7,25.2,29.88,NE,36,4.0,4.0,94,0.00,BKN,,0.00,35.0,WeatherDisplay:10.37,2013-02-22 15:00:00,
2013-02-22 09:05:00,26.7,25.2,29.88,NE,40,3.5,3.5,94,0.00,BKN,,0.00,42.0,WeatherDisplay:10.37,2013-02-22 15:05:00,
2013-02-22 09:10:00,26.8,25.3,29.88,NE,42,3.5,3.5,94,0.00,BKN,,0.00,40.0,WeatherDisplay:10.37,2013-02-22 15:10:00,
2013-02-22 09:15:00,26.8,25.3,29.88,NE,54,3.5,3.5,94,0.00,BKN,,0.00,40.0,WeatherDisplay:10.37,2013-02-22 15:15:00,
2013-02-22 09:20:00,26.8,25.3,29.89,NE,44,3.5,3.5,94,0.00,BKN,,0.00,40.0,WeatherDisplay:10.37,2013-02-22 15:20:00,
2013-02-22 09:25:00,26.9,25.4,29.89,NE,40,4.6,4.6,94,0.00,BKN,,0.00,40.0,WeatherDisplay:10.37,2013-02-22 15:25:00,
2013-02-22 09:30:00,27.0,25.5,29.89,ENE,57,4.0,4.0,94,0.00,BKN,,0.00,44.0,WeatherDisplay:10.37,2013-02-22 15:30:00,
2013-02-22 09:35:00,27.0,25.5,29.89,ENE,57,3.5,3.5,94,0.00,BKN,,0.00,44.0,WeatherDisplay:10.37,2013-02-22 15:35:00,
2013-02-22 09:40:00,27.0,25.5,29.89,NE,56,2.3,2.3,94,0.00,BKN,,0.00,37.0,WeatherDisplay:10.37,2013-02-22 15:40:00,
2013-02-22 09:45:00,27.0,25.5,29.89,NE,56,2.3,2.3,94,0.00,BKN,,0.00,44.0,WeatherDisplay:10.37,2013-02-22 15:45:00,
2013-02-22 09:50:00,27.1,25.6,29.89,NE,52,2.3,2.3,94,0.00,BKN,,0.00,40.0,WeatherDisplay:10.37,2013-02-22 15:50:00,
2013-02-22 09:55:00,27.1,25.6,29.89,NNE,32,3.0,3.0,94,0.00,BKN,,0.00,46.0,WeatherDisplay:10.37,2013-02-22 15:55:00,
2013-02-22 10:00:00,27.1,25.6,29.89,NNE,32,2.3,2.3,94,0.00,BKN,,0.00,49.0,WeatherDisplay:10.37,2013-02-22 16:00:00,
2013-02-22 10:05:00,27.1,25.6,29.88,NNE,32,3.5,3.5,94,0.00,BKN,,0.00,54.0,WeatherDisplay:10.37,2013-02-22 16:05:00,
2013-02-22 10:10:00,27.1,25.6,29.88,NNE,32,3.5,3.5,94,0.00,BKN,,0.00,53.0,WeatherDisplay:10.37,2013-02-22 16:10:00,
2013-02-22 10:15:00,27.2,25.7,29.88,NNE,32,2.3,2.4,94,0.00,BKN,,0.00,56.0,WeatherDisplay:10.37,2013-02-22 16:15:00,
2013-02-22 10:20:00,27.2,25.7,29.88,NNE,32,2.3,2.3,94,0.00,BKN,,0.00,53.0,WeatherDisplay:10.37,2013-02-22 16:20:00,
2013-02-22 10:25:00,27.2,25.7,29.88,NNE,33,2.3,2.3,94,0.00,BKN,,0.00,54.0,WeatherDisplay:10.37,2013-02-22 16:25:00,
2013-02-22 10:30:00,27.3,25.8,29.88,NNE,32,2.0,2.0,94,0.00,BKN,,0.00,58.0,WeatherDisplay:10.37,2013-02-22 16:30:00,
2013-02-22 10:35:00,27.3,25.8,29.88,NNE,33,3.5,3.5,94,0.00,BKN,,0.00,54.0,WeatherDisplay:10.37,2013-02-22 16:35:00,
2013-02-22 10:40:00,27.4,25.9,29.88,NNE,32,0.0,0.6,94,0.00,BKN,,0.00,51.0,WeatherDisplay:10.37,2013-02-22 16:40:00,
2013-02-22 10:45:00,27.4,25.9,29.88,NNE,33,2.3,2.3,94,0.00,BKN,,0.00,56.0,WeatherDisplay:10.37,2013-02-22 16:45:00,
2013-02-22 10:50:00,27.4,25.9,29.88,NNE,32,2.3,2.3,94,0.00,BKN,,0.00,62.0,WeatherDisplay:10.37,2013-02-22 16:50:00,
2013-02-22 10:56:00,27.5,26.0,29.88,NNE,33,3.5,3.5,94,0.00,BKN,,0.00,58.0,WeatherDisplay:10.37,2013-02-22 16:56:00,
2013-02-22 11:01:00,27.5,26.0,29.88,NNE,33,2.3,2.3,94,0.00,BKN,,0.00,51.0,WeatherDisplay:10.37,2013-02-22 17:01:00,
2013-02-22 11:06:00,27.6,26.1,29.88,NNE,32,0.0,0.0,94,0.00,BKN,,0.00,51.0,WeatherDisplay:10.37,2013-02-22 17:06:00,
2013-02-22 11:11:00,27.7,26.2,29.88,NNE,33,2.3,2.3,94,0.00,BKN,,0.00,65.0,WeatherDisplay:10.37,2013-02-22 17:11:00,
2013-02-22 11:16:00,27.7,26.2,29.88,NNE,33,3.5,3.5,94,0.00,BKN,,0.00,76.0,WeatherDisplay:10.37,2013-02-22 17:16:00,
2013-02-22 11:21:00,27.8,26.3,29.88,NNE,33,2.3,2.3,94,0.00,BKN,,0.00,90.0,WeatherDisplay:10.37,2013-02-22 17:21:00,
2013-02-22 11:26:00,27.9,26.4,29.88,NNE,32,0.0,0.0,94,0.00,BKN,,0.00,93.0,WeatherDisplay:10.37,2013-02-22 17:26:00,
2013-02-22 11:31:00,28.1,26.6,29.88,NNE,32,2.3,2.3,94,0.00,BKN,,0.00,105.0,WeatherDisplay:10.37,2013-02-22 17:31:00,
2013-02-22 11:36:00,28.2,26.7,29.88,NNE,33,2.3,2.3,94,0.00,BKN,,0.00,114.0,WeatherDisplay:10.37,2013-02-22 17:36:00,
2013-02-22 11:41:00,28.4,26.9,29.87,NNE,33,2.3,2.3,94,0.00,BKN,,0.00,113.0,WeatherDisplay:10.37,2013-02-22 17:41:00,
2013-02-22 11:46:00,28.6,27.4,29.87,NNE,32,0.0,0.0,95,0.00,BKN,,0.00,95.0,WeatherDisplay:10.37,2013-02-22 17:46:00,
2013-02-22 11:51:00,28.7,27.4,29.87,NNE,33,3.5,3.5,95,0.00,BKN,,0.00,88.0,WeatherDisplay:10.37,2013-02-22 17:51:00,
2013-02-22 11:56:00,28.5,27.0,29.87,NNE,33,3.5,3.5,94,0.00,BKN,,0.00,90.0,WeatherDisplay:10.37,2013-02-22 17:56:00,
2013-02-22 12:01:00,28.5,27.0,29.86,NNE,33,2.3,0.0,94,0.00,BKN,,0.00,95.0,WeatherDisplay:10.37,2013-02-22 18:01:00,
2013-02-22 12:06:00,28.5,27.0,29.86,NNE,32,1.1,0.0,94,0.00,BKN,,0.00,105.0,WeatherDisplay:10.37,2013-02-22 18:06:00,
2013-02-22 12:11:00,28.6,27.1,29.86,NNE,33,2.0,0.0,94,0.00,BKN,,0.00,98.0,WeatherDisplay:10.37,2013-02-22 18:11:00,
2013-02-22 12:16:00,28.7,27.2,29.85,NNE,33,2.3,2.3,94,0.00,BKN,,0.00,98.0,WeatherDisplay:10.37,2013-02-22 18:16:00,
2013-02-22 12:21:00,28.8,27.3,29.85,NNE,32,0.0,0.0,94,0.00,BKN,,0.00,90.0,WeatherDisplay:10.37,2013-02-22 18:21:00,
2013-02-22 12:26:00,28.9,27.4,29.85,NNE,33,2.3,2.3,94,0.00,BKN,,0.00,79.0,WeatherDisplay:10.37,2013-02-22 18:26:00,
2013-02-22 12:31:00,28.9,27.4,29.85,NNE,32,0.0,0.0,94,0.00,BKN,,0.00,81.0,WeatherDisplay:10.37,2013-02-22 18:31:00,
2013-02-22 12:36:00,29.1,27.8,29.85,NNE,33,1.1,0.0,95,0.00,BKN,,0.00,102.0,WeatherDisplay:10.37,2013-02-22 18:36:00,
2013-02-22 12:41:00,29.3,27.8,29.84,NNE,32,0.0,0.0,94,0.00,BKN,,0.00,141.0,WeatherDisplay:10.37,2013-02-22 18:41:00,
2013-02-22 12:46:00,29.4,27.9,29.84,NNE,33,0.0,0.0,94,0.00,BKN,,0.00,144.0,WeatherDisplay:10.37,2013-02-22 18:46:00,
2013-02-22 12:51:00,29.5,28.0,29.83,NNE,33,2.3,2.3,94,0.00,BKN,,0.00,148.0,WeatherDisplay:10.37,2013-02-22 18:51:00,
2013-02-22 12:56:00,29.6,28.1,29.83,NNE,33,1.1,1.1,94,0.00,BKN,,0.00,151.0,WeatherDisplay:10.37,2013-02-22 18:56:00,
2013-02-22 13:01:00,29.7,28.2,29.83,NNE,33,2.3,2.3,94,0.00,BKN,,0.00,135.0,WeatherDisplay:10.37,2013-02-22 19:01:00,
2013-02-22 13:06:00,29.6,28.1,29.83,NNE,32,2.0,2.0,94,0.00,BKN,,0.00,153.0,WeatherDisplay:10.37,2013-02-22 19:06:00,
2013-02-22 13:11:00,29.6,28.1,29.83,NNE,33,2.3,2.3,94,0.00,BKN,,0.00,149.0,WeatherDisplay:10.37,2013-02-22 19:11:00,
2013-02-22 13:16:00,29.7,28.2,29.83,NNE,32,0.0,0.0,94,0.00,BKN,,0.00,132.0,WeatherDisplay:10.37,2013-02-22 19:16:00,
2013-02-22 13:21:00,29.8,28.3,29.83,NNE,33,0.0,0.0,94,0.00,BKN,,0.00,135.0,WeatherDisplay:10.37,2013-02-22 19:21:00,
2013-02-22 13:26:00,29.9,28.4,29.83,NNE,33,0.0,0.0,94,0.00,BKN,,0.00,109.0,WeatherDisplay:10.37,2013-02-22 19:26:00,
2013-02-22 13:31:00,29.9,28.4,29.83,NNE,33,2.3,2.3,94,0.00,BKN,,0.00,104.0,WeatherDisplay:10.37,2013-02-22 19:31:00,
2013-02-22 13:36:00,29.9,28.4,29.83,NE,38,1.1,0.0,94,0.00,BKN,,0.00,104.0,WeatherDisplay:10.37,2013-02-22 19:36:00,
2013-02-22 13:41:00,29.9,28.4,29.83,NE,38,0.0,0.0,94,0.00,BKN,,0.00,113.0,WeatherDisplay:10.37,2013-02-22 19:41:00,
2013-02-22 13:46:00,29.9,28.4,29.83,NE,40,3.5,3.5,94,0.00,BKN,,0.00,130.0,WeatherDisplay:10.37,2013-02-22 19:46:00,
2013-02-22 13:51:00,29.9,28.4,29.83,ESE,120,1.1,1.1,94,0.00,BKN,,0.00,155.0,WeatherDisplay:10.37,2013-02-22 19:51:00,
2013-02-22 13:56:00,30.0,28.5,29.82,ESE,113,3.5,3.5,94,0.00,BKN,,0.00,176.0,WeatherDisplay:10.37,2013-02-22 19:56:00,
2013-02-22 14:01:00,30.1,28.6,29.82,ESE,113,1.1,1.1,94,0.00,BKN,,0.00,158.0,WeatherDisplay:10.37,2013-02-22 20:01:00,
2013-02-22 14:06:00,30.1,28.6,29.81,ESE,113,0.0,0.0,94,0.00,BKN,,0.00,151.0,WeatherDisplay:10.37,2013-02-22 20:06:00,
2013-02-22 14:11:00,30.2,28.7,29.81,ESE,113,0.0,0.0,94,0.00,BKN,,0.00,169.0,WeatherDisplay:10.37,2013-02-22 20:11:00,
2013-02-22 14:16:00,30.4,28.9,29.82,ESE,113,2.3,2.3,94,0.00,BKN,,0.00,160.0,WeatherDisplay:10.37,2013-02-22 20:16:00,
2013-02-22 14:21:00,30.4,28.9,29.82,South,188,0.0,0.0,94,0.00,BKN,,0.00,128.0,WeatherDisplay:10.37,2013-02-22 20:21:00,
2013-02-22 14:26:00,30.4,28.9,29.83,South,188,1.1,0.0,94,0.00,BKN,,0.00,107.0,WeatherDisplay:10.37,2013-02-22 20:26:00,
2013-02-22 14:31:00,30.4,28.9,29.83,South,187,3.5,3.5,94,0.00,BKN,,0.00,56.0,WeatherDisplay:10.37,2013-02-22 20:31:00,
2013-02-22 14:36:00,30.2,28.7,29.84,SSE,150,0.0,0.0,94,0.00,BKN,,0.00,49.0,WeatherDisplay:10.37,2013-02-22 20:36:00,
2013-02-22 14:41:00,30.1,28.6,29.84,SSE,150,0.0,0.0,94,0.00,BKN,,0.00,46.0,WeatherDisplay:10.37,2013-02-22 20:41:00,
2013-02-22 14:46:00,30.0,28.5,29.85,SE,143,0.0,0.0,94,0.00,BKN,,0.00,40.0,WeatherDisplay:10.37,2013-02-22 20:46:00,
2013-02-22 14:51:00,29.9,28.4,29.85,South,189,3.5,3.5,94,0.00,BKN,,0.00,35.0,WeatherDisplay:10.37,2013-02-22 20:51:00,
2013-02-22 14:56:00,29.8,28.3,29.85,SSE,157,3.5,3.5,94,0.00,BKN,,0.00,42.0,WeatherDisplay:10.37,2013-02-22 20:56:00,
2013-02-22 15:01:00,29.7,28.2,29.85,SSE,150,0.0,0.0,94,0.00,BKN,,0.00,37.0,WeatherDisplay:10.37,2013-02-22 21:01:00,
2013-02-22 15:06:00,29.7,28.2,29.85,SSW,205,3.5,3.5,94,0.00,BKN,,0.00,32.0,WeatherDisplay:10.37,2013-02-22 21:06:00,
2013-02-22 15:11:00,29.6,28.1,29.86,SSE,167,2.3,2.3,94,0.00,BKN,,0.00,33.0,WeatherDisplay:10.37,2013-02-22 21:11:00,
2013-02-22 15:16:00,29.6,28.1,29.86,South,173,0.0,0.4,94,0.00,BKN,,0.00,37.0,WeatherDisplay:10.37,2013-02-22 21:16:00,
2013-02-22 15:21:00,29.5,28.0,29.86,SSE,161,3.5,3.5,94,0.00,BKN,,0.00,35.0,WeatherDisplay:10.37,2013-02-22 21:21:00,
2013-02-22 15:26:00,29.4,27.9,29.86,South,181,3.5,3.5,94,0.00,BKN,,0.00,40.0,WeatherDisplay:10.37,2013-02-22 21:26:00,
2013-02-22 15:31:00,29.4,27.9,29.86,SSW,195,3.5,3.5,94,0.00,BKN,,0.00,40.0,WeatherDisplay:10.37,2013-02-22 21:31:00,
2013-02-22 15:36:00,29.3,27.8,29.86,SW,235,0.0,0.0,94,0.00,BKN,,0.00,39.0,WeatherDisplay:10.37,2013-02-22 21:36:00,
2013-02-22 15:41:00,29.3,27.8,29.85,South,184,2.3,2.3,94,0.00,BKN,,0.00,40.0,WeatherDisplay:10.37,2013-02-22 21:41:00,
2013-02-22 15:46:00,29.3,27.8,29.85,South,189,5.0,5.0,94,0.00,BKN,,0.00,44.0,WeatherDisplay:10.37,2013-02-22 21:46:00,
2013-02-22 15:51:00,29.3,27.8,29.85,SSW,208,2.3,2.3,94,0.00,BKN,,0.00,39.0,WeatherDisplay:10.37,2013-02-22 21:51:00,
2013-02-22 15:56:00,29.3,27.8,29.85,SSW,200,2.3,2.3,94,0.00,BKN,,0.00,35.0,WeatherDisplay:10.37,2013-02-22 21:56:00,
2013-02-22 16:01:00,29.3,27.8,29.85,South,170,3.5,3.5,94,0.00,BKN,,0.00,35.0,WeatherDisplay:10.37,2013-02-22 22:01:00,
2013-02-22 16:06:00,29.3,27.8,29.85,South,171,0.0,0.0,94,0.00,BKN,,0.00,33.0,WeatherDisplay:10.37,2013-02-22 22:06:00,
2013-02-22 16:11:00,29.2,27.7,29.85,SW,219,1.1,0.0,94,0.00,BKN,,0.00,37.0,WeatherDisplay:10.37,2013-02-22 22:11:00,
2013-02-22 16:16:00,29.3,27.8,29.85,SSW,193,2.3,2.3,94,0.00,BKN,,0.00,39.0,WeatherDisplay:10.37,2013-02-22 22:16:00,
2013-02-22 16:21:00,29.2,27.7,29.85,South,185,3.5,3.5,94,0.00,BKN,,0.00,42.0,WeatherDisplay:10.37,2013-02-22 22:21:00,
2013-02-22 16:26:00,29.3,27.8,29.85,South,181,3.0,3.0,94,0.00,BKN,,0.00,42.0,WeatherDisplay:10.37,2013-02-22 22:26:00,
2013-02-22 16:31:00,29.2,27.7,29.85,SSW,198,3.0,3.0,94,0.00,BKN,,0.00,42.0,WeatherDisplay:10.37,2013-02-22 22:31:00,
2013-02-22 16:36:00,29.1,27.6,29.85,South,189,2.3,2.3,94,0.00,BKN,,0.00,28.0,WeatherDisplay:10.37,2013-02-22 22:36:00,
2013-02-22 16:41:00,29.1,27.6,29.85,SSW,212,5.8,5.8,94,0.00,BKN,,0.00,21.0,WeatherDisplay:10.37,2013-02-22 22:41:00,
2013-02-22 16:46:00,29.0,27.5,29.85,SW,214,0.0,0.0,94,0.00,BKN,,0.00,18.0,WeatherDisplay:10.37,2013-02-22 22:46:00,
2013-02-22 16:51:00,29.0,27.5,29.86,SW,236,3.5,3.5,94,0.00,BKN,,0.00,16.0,WeatherDisplay:10.37,2013-02-22 22:51:00,
2013-02-22 16:56:00,28.9,27.4,29.86,South,190,3.5,3.5,94,0.00,BKN,,0.00,12.0,WeatherDisplay:10.37,2013-02-22 22:56:00,
2013-02-22 17:01:00,28.9,27.1,29.86,South,173,2.3,2.3,93,0.00,BKN,,0.00,9.0,WeatherDisplay:10.37,2013-02-22 23:01:00,
2013-02-22 17:06:00,28.8,27.0,29.86,SW,228,3.5,0.0,93,0.00,BKN,,0.00,9.0,WeatherDisplay:10.37,2013-02-22 23:06:00,
2013-02-22 17:11:00,28.8,27.0,29.86,SW,235,2.3,2.3,93,0.00,BKN,,0.00,7.0,WeatherDisplay:10.37,2013-02-22 23:11:00,
2013-02-22 17:16:00,28.7,26.9,29.86,WSW,247,1.1,0.0,93,0.00,BKN,,0.00,5.0,WeatherDisplay:10.37,2013-02-22 23:16:00,
2013-02-22 17:21:00,28.6,26.8,29.86,WSW,251,1.1,1.1,93,0.00,BKN,,0.00,5.0,WeatherDisplay:10.37,2013-02-22 23:21:00,
2013-02-22 17:26:00,28.6,26.8,29.86,SSW,200,1.1,0.0,93,0.00,OVC,,0.00,0.0,WeatherDisplay:10.37,2013-02-22 23:26:00,
2013-02-22 17:31:00,28.6,26.8,29.86,South,184,0.0,0.0,93,0.00,OVC,,0.00,0.0,WeatherDisplay:10.37,2013-02-22 23:31:00,
2013-02-22 17:36:00,28.5,26.7,29.86,SW,215,3.5,3.5,93,0.00,OVC,,0.00,0.0,WeatherDisplay:10.37,2013-02-22 23:36:00,
2013-02-22 17:41:00,28.5,26.7,29.87,SW,220,2.3,2.3,93,0.00,OVC,,0.00,0.0,WeatherDisplay:10.37,2013-02-22 23:41:00,
2013-02-22 17:46:00,28.5,26.7,29.87,South,179,2.3,2.3,93,0.00,OVC,,0.00,0.0,WeatherDisplay:10.37,2013-02-22 23:46:00,
2013-02-22 17:51:00,28.4,26.9,29.87,SSW,198,1.1,0.0,94,0.00,OVC,,0.00,0.0,WeatherDisplay:10.37,2013-02-22 23:51:00,
2013-02-22 17:56:00,28.4,26.9,29.87,South,178,2.3,2.3,94,0.00,OVC,,0.00,0.0,WeatherDisplay:10.37,2013-02-22 23:56:00,
2013-02-22 18:01:00,28.3,26.8,29.87,SW,214,0.0,0.0,94,0.00,CLR,,0.00,0.0,WeatherDisplay:10.37,2013-02-23 00:01:00,
2013-02-22 18:06:00,28.3,26.8,29.87,SW,228,2.3,2.3,94,0.00,CLR,,0.00,0.0,WeatherDisplay:10.37,2013-02-23 00:06:00,
2013-02-22 18:11:00,28.2,26.7,29.87,SW,227,0.0,0.0,94,0.00,CLR,,0.00,0.0,WeatherDisplay:10.37,2013-02-23 00:11:00,
2013-02-22 18:16:00,28.2,26.4,29.87,SW,225,2.3,2.3,93,0.00,CLR,,0.00,0.0,WeatherDisplay:10.37,2013-02-23 00:16:00,
2013-02-22 18:21:00,28.2,26.4,29.87,South,185,5.0,5.0,93,0.00,CLR,,0.00,0.0,WeatherDisplay:10.37,2013-02-23 00:21:00,
2013-02-22 18:26:00,28.1,26.3,29.88,South,189,4.6,4.6,93,0.00,CLR,,0.00,0.0,WeatherDisplay:10.37,2013-02-23 00:26:00,
2013-02-22 18:31:00,28.1,26.3,29.87,SW,235,3.5,3.5,93,0.00,CLR,,0.00,0.0,WeatherDisplay:10.37,2013-02-23 00:31:00,
2013-02-22 18:36:00,28.0,26.2,29.88,SW,216,3.5,3.5,93,0.00,CLR,,0.00,0.0,WeatherDisplay:10.37,2013-02-23 00:36:00,
2013-02-22 18:41:00,28.0,26.2,29.88,SW,227,2.3,2.3,93,0.00,CLR,,0.00,0.0,WeatherDisplay:10.37,2013-02-23 00:41:00,
2013-02-22 18:46:00,27.9,26.1,29.88,SW,226,6.9,6.9,93,0.00,CLR,,0.00,0.0,WeatherDisplay:10.37,2013-02-23 00:46:00,
2013-02-22 18:51:00,27.9,26.1,29.88,WSW,244,1.1,1.1,93,0.00,CLR,,0.00,0.0,WeatherDisplay:10.37,2013-02-23 00:51:00,
2013-02-22 18:56:00,27.9,26.1,29.88,SW,234,3.5,3.5,93,0.00,CLR,,0.00,0.0,WeatherDisplay:10.37,2013-02-23 00:56:00,
2013-02-22 19:01:00,27.9,26.1,29.88,SW,234,0.0,0.0,93,0.00,CLR,,0.00,0.0,WeatherDisplay:10.37,2013-02-23 01:01:00,
2013-02-22 19:06:00,27.8,26.0,29.88,South,181,3.5,3.5,93,0.00,CLR,,0.00,0.0,WeatherDisplay:10.37,2013-02-23 01:06:00,
2013-02-22 19:11:00,27.8,26.0,29.89,South,172,2.3,2.3,93,0.00,CLR,,0.00,0.0,WeatherDisplay:10.37,2013-02-23 01:11:00,
2013-02-22 19:16:00,27.7,25.9,29.89,South,173,9.2,9.2,93,0.00,CLR,,0.00,0.0,WeatherDisplay:10.37,2013-02-23 01:16:00,
2013-02-22 19:21:00,27.7,25.9,29.89,SSW,208,0.0,0.0,93,0.00,CLR,,0.00,0.0,WeatherDisplay:10.37,2013-02-23 01:21:00,
2013-02-22 19:26:00,27.7,25.9,29.89,SSE,153,3.5,3.5,93,0.00,CLR,,0.00,0.0,WeatherDisplay:10.37,2013-02-23 01:26:00,
2013-02-22 19:31:00,27.7,25.9,29.89,South,183,1.1,1.1,93,0.00,CLR,,0.00,0.0,WeatherDisplay:10.37,2013-02-23 01:31:00,
2013-02-22 19:36:00,27.7,25.9,29.89,SSW,212,3.5,3.5,93,0.00,CLR,,0.00,0.0,WeatherDisplay:10.37,2013-02-23 01:36:00,
2013-02-22 19:41:00,27.6,25.8,29.89,ESE,112,3.5,0.0,93,0.00,CLR,,0.00,0.0,WeatherDisplay:10.37,2013-02-23 01:41:00,
2013-02-22 19:46:00,27.6,25.8,29.89,SW,225,2.3,2.3,93,0.00,CLR,,0.00,0.0,WeatherDisplay:10.37,2013-02-23 01:46:00,
2013-02-22 19:51:00,27.6,25.8,29.89,East,89,1.1,1.1,93,0.00,CLR,,0.00,0.0,WeatherDisplay:10.37,2013-02-23 01:51:00,
2013-02-22 19:56:00,27.6,25.8,29.89,SW,228,0.0,0.0,93,0.00,CLR,,0.00,0.0,WeatherDisplay:10.37,2013-02-23 01:56:00,
2013-02-22 20:01:00,27.5,25.7,29.89,SSE,151,3.0,3.0,93,0.00,CLR,,0.00,0.0,WeatherDisplay:10.37,2013-02-23 02:01:00,
2013-02-22 20:06:00,27.5,25.7,29.89,SSW,204,1.1,1.1,93,0.00,CLR,,0.00,0.0,WeatherDisplay:10.37,2013-02-23 02:06:00,
2013-02-22 20:11:00,27.5,25.7,29.89,South,186,2.3,2.3,93,0.00,CLR,,0.00,0.0,WeatherDisplay:10.37,2013-02-23 02:11:00,
2013-02-22 20:16:00,27.5,25.7,29.89,South,186,3.5,3.5,93,0.00,CLR,,0.00,0.0,WeatherDisplay:10.37,2013-02-23 02:16:00,
2013-02-22 20:21:00,27.5,25.7,29.89,SSW,208,2.3,0.0,93,0.00,CLR,,0.00,0.0,WeatherDisplay:10.37,2013-02-23 02:21:00,
2013-02-22 20:26:00,27.5,25.7,29.89,South,174,2.3,2.3,93,0.00,CLR,,0.00,0.0,WeatherDisplay:10.37,2013-02-23 02:26:00,
2013-02-22 20:31:00,27.4,25.6,29.89,South,190,1.1,1.1,93,0.00,CLR,,0.00,0.0,WeatherDisplay:10.37,2013-02-23 02:31:00,
2013-02-22 20:36:00,27.4,25.6,29.89,South,183,3.5,3.5,93,0.00,CLR,,0.00,0.0,WeatherDisplay:10.37,2013-02-23 02:36:00,
2013-02-22 20:41:00,27.4,25.6,29.89,SSW,206,2.3,2.6,93,0.00,CLR,,0.00,0.0,WeatherDisplay:10.37,2013-02-23 02:41:00,
2013-02-22 20:46:00,27.4,25.6,29.90,SSW,201,2.3,2.3,93,0.00,CLR,,0.00,0.0,WeatherDisplay:10.37,2013-02-23 02:46:00,
2013-02-22 20:51:00,27.4,25.6,29.89,SSW,194,3.5,3.5,93,0.00,CLR,,0.00,0.0,WeatherDisplay:10.37,2013-02-23 02:51:00,
2013-02-22 20:56:00,27.4,25.6,29.90,South,183,0.0,0.0,93,0.00,CLR,,0.00,0.0,WeatherDisplay:10.37,2013-02-23 02:56:00,
2013-02-22 21:01:00,27.3,25.5,29.90,SW,217,3.5,3.5,93,0.00,CLR,,0.00,0.0,WeatherDisplay:10.37,2013-02-23 03:01:00,
2013-02-22 21:06:00,27.3,25.5,29.90,South,183,5.0,5.0,93,0.00,CLR,,0.00,0.0,WeatherDisplay:10.37,2013-02-23 03:06:00,
2013-02-22 21:11:00,27.3,25.5,29.90,South,188,1.1,1.1,93,0.00,CLR,,0.00,0.0,WeatherDisplay:10.37,2013-02-23 03:11:00,
2013-02-22 21:16:00,27.3,25.5,29.90,SSW,194,6.9,6.9,93,0.00,CLR,,0.00,0.0,WeatherDisplay:10.37,2013-02-23 03:16:00,
2013-02-22 21:21:00,27.3,25.5,29.90,SW,221,2.3,2.3,93,0.00,CLR,,0.00,0.0,WeatherDisplay:10.37,2013-02-23 03:21:00,
2013-02-22 21:26:00,27.2,25.4,29.90,SSW,204,2.3,2.3,93,0.00,CLR,,0.00,0.0,WeatherDisplay:10.37,2013-02-23 03:26:00,
2013-02-22 21:31:00,27.2,25.4,29.90,SW,229,5.0,5.0,93,0.00,CLR,,0.00,0.0,WeatherDisplay:10.37,2013-02-23 03:31:00,
2013-02-22 21:36:00,27.2,25.4,29.90,SSW,192,3.5,3.5,93,0.00,CLR,,0.00,0.0,WeatherDisplay:10.37,2013-02-23 03:36:00,
2013-02-22 21:41:00,27.1,25.3,29.89,SSW,206,3.5,3.6,93,0.00,CLR,,0.00,0.0,WeatherDisplay:10.37,2013-02-23 03:41:00,
2013-02-22 21:46:00,27.1,25.3,29.89,South,181,3.5,3.5,93,0.00,CLR,,0.00,0.0,WeatherDisplay:10.37,2013-02-23 03:46:00,
2013-02-22 21:51:00,27.0,25.2,29.89,South,173,5.8,5.8,93,0.00,CLR,,0.00,0.0,WeatherDisplay:10.37,2013-02-23 03:51:00,
2013-02-22 21:56:00,27.0,25.2,29.89,SW,222,2.3,2.3,93,0.00,CLR,,0.00,0.0,WeatherDisplay:10.37,2013-02-23 03:56:00,
2013-02-22 22:01:00,27.0,25.2,29.89,WSW,239,4.6,4.6,93,0.00,CLR,,0.00,0.0,WeatherDisplay:10.37,2013-02-23 04:01:00,
2013-02-22 22:06:00,27.0,25.2,29.89,West,264,3.5,3.5,93,0.00,CLR,,0.00,0.0,WeatherDisplay:10.37,2013-02-23 04:06:00,
2013-02-22 22:11:00,27.0,25.2,29.89,WSW,241,4.6,4.6,93,0.00,CLR,,0.00,0.0,WeatherDisplay:10.37,2013-02-23 04:11:00,
2013-02-22 22:16:00,26.9,25.1,29.89,SSW,200,2.3,2.3,93,0.00,CLR,,0.00,0.0,WeatherDisplay:10.37,2013-02-23 04:16:00,
2013-02-22 22:21:00,26.9,25.1,29.90,SSW,212,3.5,3.5,93,0.00,CLR,,0.00,0.0,WeatherDisplay:10.37,2013-02-23 04:21:00,
2013-02-22 22:26:00,26.9,25.1,29.89,WSW,245,2.3,2.3,93,0.00,CLR,,0.00,0.0,WeatherDisplay:10.37,2013-02-23 04:26:00,
2013-02-22 22:31:00,26.9,25.1,29.90,SSW,201,4.6,4.6,93,0.00,CLR,,0.00,0.0,WeatherDisplay:10.37,2013-02-23 04:31:00,
2013-02-22 22:36:00,26.9,25.1,29.90,SW,232,3.5,3.5,93,0.00,CLR,,0.00,0.0,WeatherDisplay:10.37,2013-02-23 04:36:00,
2013-02-22 22:41:00,26.9,25.1,29.90,SSW,206,3.5,3.5,93,0.00,CLR,,0.00,0.0,WeatherDisplay:10.37,2013-02-23 04:41:00,
2013-02-22 22:46:00,26.8,25.0,29.89,South,186,3.5,3.5,93,0.00,CLR,,0.00,0.0,WeatherDisplay:10.37,2013-02-23 04:46:00,
2013-02-22 22:51:00,26.8,25.0,29.89,SSW,198,2.3,2.3,93,0.00,CLR,,0.00,0.0,WeatherDisplay:10.37,2013-02-23 04:51:00,
2013-02-22 22:56:00,26.8,25.0,29.89,South,171,2.3,2.3,93,0.00,CLR,,0.00,0.0,WeatherDisplay:10.37,2013-02-23 04:56:00,
2013-02-22 23:00:00,26.8,25.0,29.89,South,191,0.0,5.0,93,0.00,CLR,,0.00,0.0,WeatherDisplay:10.37,2013-02-23 05:00:00,
2013-02-22 23:01:00,26.8,25.0,29.89,SSW,205,2.3,2.3,93,0.00,CLR,,0.00,0.0,WeatherDisplay:10.37,2013-02-23 05:01:00,
2013-02-22 23:06:00,26.8,25.0,29.89,SW,225,5.8,5.8,93,0.00,CLR,,0.00,0.0,WeatherDisplay:10.37,2013-02-23 05:06:00,
2013-02-22 23:11:00,26.8,25.0,29.89,South,175,5.8,5.8,93,0.00,CLR,,0.00,0.0,WeatherDisplay:10.37,2013-02-23 05:11:00,
2013-02-22 23:16:00,26.8,25.0,29.89,SW,214,3.5,3.5,93,0.00,CLR,,0.00,0.0,WeatherDisplay:10.37,2013-02-23 05:16:00,
2013-02-22 23:21:00,26.8,25.0,29.89,SSW,192,3.5,3.5,93,0.00,CLR,,0.00,0.0,WeatherDisplay:10.37,2013-02-23 05:21:00,
2013-02-22 23:26:00,26.7,24.9,29.89,SSW,204,3.5,3.5,93,0.00,CLR,,0.00,0.0,WeatherDisplay:10.37,2013-02-23 05:26:00,
2013-02-22 23:31:00,26.7,26.7,29.89,SSW,192,3.5,3.5,100,0.00,CLR,,0.00,0.0,WeatherDisplay:10.37,2013-02-23 05:31:00,
2013-02-22 23:36:00,26.7,26.7,29.89,SSW,202,2.3,2.3,100,0.00,CLR,,0.00,0.0,WeatherDisplay:10.37,2013-02-23 05:36:00,
2013-02-22 23:41:00,26.7,24.9,29.89,SSW,207,4.6,4.6,93,0.00,CLR,,0.00,0.0,WeatherDisplay:10.37,2013-02-23 05:41:00,
2013-02-22 23:46:00,26.6,24.8,29.89,SSW,210,5.8,5.8,93,0.00,CLR,,0.00,0.0,WeatherDisplay:10.37,2013-02-23 05:46:00,
2013-02-22 23:51:00,26.6,24.8,29.89,WSW,244,5.8,5.8,93,0.00,CLR,,0.00,0.0,WeatherDisplay:10.37,2013-02-23 05:51:00,
2013-02-22 23:56:00,26.6,24.8,29.89,SW,233,1.1,1.1,93,0.00,CLR,,0.00,0.0,WeatherDisplay:10.37,2013-02-23 05:56:00,